#datint,netname,site,siteID,timestamp,IntT,BattV,AirT2,AirT,AirT_Avg,AirT_Max,AirT_Min,RH_Avg,RH_Max,RH_Min,EA_Avg,Td_Avg,Td_Max,Td_Min,WindS_Smp,WindS_Avg,WindD_Avg,WindD_SD,WindS_Max,ETo,ETr,SoilT4,SoilT8,SoilVWC8,SolarW_Avg,wetstate_Avg,wetT_Avg,Precip_accum,Precip_WPG,Precip_TB
15min,AgWx,beryljct,423,19SEP2020:00:00:00,72.7,12.91,71.1,70.6,69.2,71.3,67.1,28,32,23,0.656,34.4,36.5,31.7,6.774,5.2,156,17,8.9,0.00049,0.00072,61.6,62.5,11,0,.,.,4.27,0.00,0.00
15min,AgWx,beryljct,423,19SEP2020:00:15:00,72.5,12.9,77.0,76.4,74.5,76.5,70.2,20,26,18,0.581,30.9,34.0,29.9,12.74,10.5,193,14,15.7,0.00121,0.00158,61.6,62.5,11,0,.,.,4.27,0.00,0.00
15min,AgWx,beryljct,423,19SEP2020:00:30:00,73.7,12.9,76.5,76.4,76.8,77.3,76.3,18,19,18,0.581,30.5,31.3,29.7,13.68,12.9,197,9.5,21.3,0.00149,0.00191,61.5,62.5,11,0,.,.,4.27,0.00,0.00
15min,AgWx,beryljct,423,19SEP2020:00:45:00,74.5,12.9,76.8,76.9,76.8,77.1,76.3,18,19,18,0.569,30.4,31.1,29.8,13.55,13.1,201,10,19.6,0.00152,0.00193,61.4,62.5,11,0,.,.,4.26,0.00,0.00
15min,AgWx,beryljct,423,19SEP2020:01:00:00,75.0,12.9,77.1,76.6,76.9,77.3,76.6,18,19,17,0.566,30.3,31.1,29.5,16.62,14.0,197,10,19.9,0.00158,0.00199,61.3,62.5,11,0,.,.,4.27,0.00,0.00
15min,AgWx,beryljct,423,19SEP2020:01:15:00,75.1,12.89,75.7,75.6,76.1,76.7,75.6,19,19,18,0.569,30.4,31.1,29.8,12.74,11.5,196,8.4,15.1,0.00136,0.00176,61.3,62.5,11,0,.,.,4.26,0.00,0.00
15min,AgWx,beryljct,423,19SEP2020:01:30:00,74.6,12.88,73.6,73.6,74.6,75.7,73.6,20,21,19,0.570,30.4,31.1,30.0,6.401,9.2,184,11,13.8,0.00111,0.00148,61.2,62.5,11,0,.,.,4.26,0.00,0.00
15min,AgWx,beryljct,423,19SEP2020:01:45:00,73.5,12.86,71.5,71.8,72.5,73.9,71.8,21,22,19,0.575,30.3,31.1,29.3,7.563,6.7,180,11,10.2,0.00077,0.00109,61.1,62.5,11,0,.,.,4.27,0.00,0.00
15min,AgWx,beryljct,423,19SEP2020:02:00:00,72.2,12.86,70.4,70.7,71.5,71.9,70.7,22,23,21,0.591,30.6,31.5,30.0,5.174,7.0,193,7.2,11.1,0.00079,0.00110,61.1,62.5,11,0,.,.,4.27,0.00,0.00
15min,AgWx,beryljct,423,19SEP2020:02:15:00,70.8,12.86,68.8,69.0,69.2,70.6,68.5,24,26,23,0.579,31.3,32.2,30.3,5.196,4.9,200,12,6.7,0.00048,0.00072,61.0,62.4,11,0,.,.,4.27,0.00,0.00
15min,AgWx,beryljct,423,19SEP2020:02:30:00,69.2,12.85,68.9,69.0,68.5,69.1,67.7,24,26,23,0.564,30.6,31.6,29.8,3.639,4.3,176,11,5.9,0.00040,0.00061,61.0,62.4,11,0,.,.,4.27,0.00,0.00
15min,AgWx,beryljct,423,19SEP2020:02:45:00,68.3,12.84,70.4,69.1,68.8,69.8,67.7,25,26,23,0.604,31.5,32.3,29.9,7.695,5.6,197,6.9,7.9,0.00055,0.00080,60.9,62.4,11,0,.,.,4.27,0.00,0.00
15min,AgWx,beryljct,423,19SEP2020:03:00:00,68.1,12.83,67.6,67.9,69.4,70.3,67.9,25,27,23,0.620,31.8,32.5,31.2,4.954,6.1,192,7.2,8.3,0.00063,0.00090,60.8,62.4,11,0,.,.,4.27,0.00,0.00
15min,AgWx,beryljct,423,19SEP2020:03:15:00,67.5,12.81,65.0,65.4,67.2,68.4,65.4,27,30,25,0.632,32.2,33.4,31.1,4.867,5.3,187,10,7.5,0.00049,0.00071,60.7,62.4,11,0,.,.,4.27,0.00,0.00
15min,AgWx,beryljct,423,19SEP2020:03:30:00,65.9,12.82,56.3,59.5,61.7,66.2,58.4,34,40,28,0.657,33.1,34.5,31.6,4.341,4.7,157,8.6,5.4,0.00032,0.00048,60.6,62.4,11,0,.,.,4.27,0.00,0.00
15min,AgWx,beryljct,423,19SEP2020:03:45:00,63.0,12.8,55.7,55.1,55.6,60.2,52.4,47,58,34,0.655,35.5,38.1,32.0,0.965,2.9,151,7.8,4.7,0.00004,0.00009,60.5,62.4,11,0,.,.,4.27,0.00,0.00
15min,AgWx,beryljct,423,19SEP2020:04:00:00,60.6,12.8,61.5,59.9,56.2,59.9,53.9,44,53,34,0.598,34.3,37.5,31.5,2.784,1.7,149,20,3.1,-0.00011,-0.00012,60.4,62.4,11,0,.,.,4.28,0.00,0.00
15min,AgWx,beryljct,423,19SEP2020:04:15:00,59.4,12.78,57.7,58.3,59.5,60.6,57.6,34,40,32,0.609,31.3,34.0,30.1,3.003,3.0,160,11,4.4,0.00012,0.00021,60.2,62.3,11,0,.,.,4.28,0.00,0.00
15min,AgWx,beryljct,423,19SEP2020:04:30:00,58.7,12.78,54.7,55.0,56.5,58.2,54.8,41,47,37,0.640,33.3,35.0,31.9,2.302,3.3,185,12,4.1,0.00011,0.00019,60.1,62.3,11,0,.,.,4.28,0.00,0.00
15min,AgWx,beryljct,423,19SEP2020:04:45:00,57.5,12.78,53.2,55.7,54.7,56.7,51.7,45,58,37,0.644,33.4,37.5,30.6,2.105,2.8,193,17,3.9,0.00004,0.00009,60.0,62.3,11,0,.,.,4.28,0.00,0.00
15min,AgWx,beryljct,423,19SEP2020:05:00:00,56.6,12.77,55.7,57.4,56.2,58.5,53.4,40,49,34,0.582,32.0,34.8,30.2,3.42,3.0,180,8.9,4.0,0.00008,0.00015,59.8,62.3,11,0,.,.,4.28,0.00,0.00
15min,AgWx,beryljct,423,19SEP2020:05:15:00,56.1,12.76,57.1,54.7,57.0,59.4,53.3,39,53,31,0.677,31.7,36.8,28.7,3.266,3.2,211,8.6,4.1,0.00012,0.00020,59.6,62.3,11,0,.,.,4.28,0.00,0.00
15min,AgWx,beryljct,423,19SEP2020:05:30:00,55.6,12.76,55.3,55.7,56.9,59.0,54.5,40,48,33,0.677,33.0,35.6,29.9,4.034,3.7,209,4.7,4.6,0.00016,0.00026,59.5,62.2,11,0,.,.,4.28,0.00,0.00
15min,AgWx,beryljct,423,19SEP2020:05:45:00,55.5,12.73,59.7,58.9,57.1,59.0,55.5,42,46,38,0.648,34.2,35.6,33.1,3.99,4.2,209,3.0,5.2,0.00019,0.00030,59.3,62.2,11,0,.,.,4.29,0.00,0.00
15min,AgWx,beryljct,423,19SEP2020:06:00:00,55.9,12.74,58.9,58.5,59.3,60.7,58.5,38,40,35,0.656,33.6,34.4,32.3,4.735,4.2,203,6.6,5.4,0.00023,0.00036,59.2,62.2,12,0,.,.,4.29,0.00,0.00
15min,AgWx,beryljct,423,19SEP2020:06:15:00,56.2,12.73,57.7,58.6,58.3,59.0,57.7,39,40,36,0.640,33.4,34.0,32.3,4.319,4.4,200,2.6,5.5,0.00024,0.00036,59.0,62.1,11,0,.,.,4.29,0.00,0.00
15min,AgWx,beryljct,423,19SEP2020:06:30:00,56.3,12.73,57.8,57.5,57.7,58.5,56.2,39,43,37,0.637,33.0,34.1,32.1,4.538,4.3,203,4.2,5.6,0.00023,0.00035,58.8,62.1,11,0,.,.,4.29,0.00,0.00
15min,AgWx,beryljct,423,19SEP2020:06:45:00,56.2,12.73,58.6,58.1,57.6,58.5,56.6,39,42,37,0.640,33.2,33.9,32.4,3.771,4.0,197,3.9,5.2,0.00064,0.00112,58.7,62.0,11,0,.,.,4.29,0.00,0.00
15min,AgWx,beryljct,423,19SEP2020:07:00:00,56.2,12.73,59.8,61.3,59.9,61.7,58.1,35,39,31,0.631,32.0,33.2,30.7,5.174,3.8,209,12,5.2,0.00068,0.00119,58.5,62.0,11,0,.,.,4.29,0.00,0.00
15min,AgWx,beryljct,423,19SEP2020:07:15:00,56.6,12.73,61.7,60.4,60.1,61.1,58.3,36,39,33,0.627,32.9,33.8,31.8,5.809,4.7,201,4.4,5.8,0.00081,0.00142,58.4,62.0,11,1,.,.,4.29,0.00,0.00
15min,AgWx,beryljct,423,19SEP2020:07:30:00,57.1,12.73,59.2,59.1,60.0,61.4,59.0,36,38,33,0.632,32.9,33.8,31.8,5.502,4.8,196,5.7,5.8,0.00085,0.00147,58.3,61.9,11,6,.,.,4.28,0.00,0.00
15min,AgWx,beryljct,423,19SEP2020:07:45:00,57.3,12.76,57.9,58.1,58.8,59.4,58.0,37,39,35,0.637,32.4,33.1,31.7,3.639,4.8,189,5.0,5.8,0.00095,0.00155,58.2,61.9,11,28,.,.,4.29,0.01,0.00
15min,AgWx,beryljct,423,19SEP2020:08:00:00,57.9,12.82,62.6,62.4,60.4,62.4,58.1,36,39,34,0.671,33.6,34.8,33.1,4.077,4.3,204,4.6,5.4,0.00116,0.00175,58.0,61.9,11,81,.,.,4.29,0.00,0.00
15min,AgWx,beryljct,423,19SEP2020:08:15:00,59.9,12.88,66.0,65.8,64.8,65.8,62.5,32,35,30,0.681,34.5,35.8,33.1,3.661,4.7,197,12,5.9,0.00154,0.00226,57.9,61.8,11,131,.,.,4.28,0.00,0.00
15min,AgWx,beryljct,423,19SEP2020:08:30:00,62.4,13.02,69.5,68.4,67.0,68.4,65.8,30,32,28,0.692,34.5,35.9,33.5,5.634,4.2,174,7.6,5.6,0.00181,0.00253,57.8,61.8,11,191,.,.,4.28,0.00,0.00
15min,AgWx,beryljct,423,19SEP2020:08:45:00,65.6,13.21,71.6,71.3,70.5,71.5,68.5,28,31,25,0.668,35.6,37.7,33.5,10.35,8.4,189,8.4,13.2,0.00278,0.00413,57.8,61.7,11,229,.,.,4.27,0.00,0.00
15min,AgWx,beryljct,423,19SEP2020:09:00:00,68.4,13.41,71.3,71.3,71.3,71.8,70.4,26,30,24,0.693,35.1,37.9,33.3,10.72,10.2,190,8.6,13.4,0.00325,0.00487,57.7,61.7,11,252,.,.,4.27,0.00,0.00
15min,AgWx,beryljct,423,19SEP2020:09:15:00,70.3,13.59,72.3,72.6,72.0,72.6,71.3,25,27,23,0.662,34.0,36.2,32.9,9.76,12.3,187,8.6,15.8,0.00381,0.00574,57.7,61.6,11,294,.,.,4.27,0.00,0.00
15min,AgWx,beryljct,423,19SEP2020:09:30:00,72.0,14.08,72.6,73.2,72.6,73.3,72.3,25,28,23,0.716,34.7,37.1,33.3,9.05,11.4,190,9.6,17.3,0.00399,0.00584,57.7,61.6,11,345,.,.,4.26,0.00,0.00
15min,AgWx,beryljct,423,19SEP2020:09:45:00,73.5,14.04,73.7,74.0,73.7,74.1,73.1,24,26,22,0.665,34.7,36.8,32.6,13.48,13.4,189,11,19.0,0.00459,0.00673,57.8,61.5,11,403,.,.,4.26,0.00,0.00
15min,AgWx,beryljct,423,19SEP2020:10:00:00,75.0,14.03,75.2,75.1,74.7,75.3,74.0,23,25,21,0.668,34.7,36.5,32.4,15.7,13.4,190,9.8,20.4,0.00506,0.00730,57.9,61.5,11,482,.,.,4.26,0.00,0.00
15min,AgWx,beryljct,423,19SEP2020:10:15:00,76.5,14.07,74.9,75.7,75.5,75.9,75.1,23,25,21,0.702,35.2,37.1,33.5,13.77,14.1,189,12,21.4,0.00556,0.00792,57.9,61.4,11,552,.,.,4.26,0.00,0.00
15min,AgWx,beryljct,423,19SEP2020:10:30:00,77.3,13.98,76.2,76.0,75.6,76.1,75.0,23,26,21,0.669,35.4,38.3,33.3,17.67,14.8,197,14,22.7,0.00569,0.00813,58.0,61.3,11,559,.,.,4.26,0.00,0.00
15min,AgWx,beryljct,423,19SEP2020:10:45:00,77.7,13.97,75.8,75.9,75.6,76.1,75.1,23,26,21,0.653,34.9,38.1,33.1,17.56,17.2,202,12,24.2,0.00605,0.00876,58.2,61.3,11,575,.,.,4.26,0.00,0.00
15min,AgWx,beryljct,423,19SEP2020:11:00:00,78.0,13.98,75.7,75.9,75.9,76.4,75.4,23,25,21,0.671,35.0,37.1,32.9,19.69,17.2,203,11,22.8,0.00627,0.00901,58.3,61.3,11,611,.,.,4.26,0.01,0.00
15min,AgWx,beryljct,423,19SEP2020:11:15:00,78.3,14.04,77.0,77.0,76.3,77.0,75.6,22,25,20,0.716,35.0,37.0,32.7,17.67,17.2,200,12,22.9,0.00650,0.00929,58.5,61.2,11,646,.,.,4.26,0.00,0.00
15min,AgWx,beryljct,423,19SEP2020:11:30:00,78.7,13.99,76.7,76.9,76.8,77.1,76.1,22,25,21,0.670,35.3,37.9,33.6,21.59,18.6,196,10,24.8,0.00682,0.00977,58.7,61.2,11,678,.,.,4.26,0.00,0.00
15min,AgWx,beryljct,423,19SEP2020:11:45:00,79.1,13.55,76.6,77.0,77.2,77.6,76.7,22,25,21,0.751,35.3,38.5,33.6,17.03,18.8,195,11,25.5,0.00704,0.01005,59.0,61.2,11,708,.,.,4.26,0.00,0.00
15min,AgWx,beryljct,423,19SEP2020:12:00:00,79.4,13.63,78.0,77.6,77.6,78.1,76.9,22,24,20,0.782,35.5,38.2,33.5,15.37,19.3,196,12,25.8,0.00726,0.01035,59.2,61.1,11,737,.,.,4.26,0.00,0.00
15min,AgWx,beryljct,423,19SEP2020:12:15:00,79.6,13.54,78.1,77.7,77.2,77.7,76.8,23,25,22,0.721,36.7,38.8,35.0,17.98,17.3,213,14,25.4,0.00713,0.00996,59.5,61.1,11,764,.,.,4.26,0.00,0.00
15min,AgWx,beryljct,423,19SEP2020:12:30:00,80.0,13.54,78.7,78.8,77.9,78.9,77.1,23,26,20,0.689,36.7,39.8,34.0,21.09,17.5,206,16,27.3,0.00733,0.01024,59.8,61.1,11,787,.,.,4.25,0.00,0.00
15min,AgWx,beryljct,423,19SEP2020:12:45:00,80.6,13.53,79.1,79.1,78.6,79.2,78.3,22,25,20,0.838,36.3,40.0,34.4,10.37,18.2,194,10,26.2,0.00755,0.01060,60.2,61.1,11,793,.,.,4.25,0.00,0.00
15min,AgWx,beryljct,423,19SEP2020:13:00:00,81.3,13.5,79.3,79.4,79.2,79.9,78.5,22,25,20,0.772,37.2,40.6,34.1,18.61,17.3,197,12,25.1,0.00757,0.01052,60.6,61.1,11,815,.,.,4.26,0.00,0.00
15min,AgWx,beryljct,423,19SEP2020:13:15:00,81.7,13.5,78.5,79.2,79.3,80.0,78.8,23,26,22,0.789,38.7,41.0,37.1,19.14,16.8,204,12,24.3,0.00759,0.01046,61.0,61.1,11,833,.,.,4.26,0.00,0.00
15min,AgWx,beryljct,423,19SEP2020:13:30:00,82.1,13.48,79.0,80.2,79.8,80.5,78.9,23,26,21,0.759,38.3,41.5,36.9,16.46,18.1,189,11,26.1,0.00773,0.01079,61.5,61.1,11,824,.,.,4.26,0.00,0.00
15min,AgWx,beryljct,423,19SEP2020:13:45:00,82.4,13.46,79.7,80.1,79.5,80.2,78.8,25,27,22,0.883,40.1,42.1,37.7,21.29,15.9,203,11,23.6,0.00742,0.01017,61.9,61.2,11,822,.,.,4.26,0.00,0.00
15min,AgWx,beryljct,423,19SEP2020:14:00:00,82.4,13.47,78.2,78.7,79.0,80.1,78.6,26,29,24,0.910,41.0,44.2,38.6,21.29,18.0,210,11,26.4,0.00749,0.01039,62.4,61.2,11,818,.,.,4.26,0.00,0.00
15min,AgWx,beryljct,423,19SEP2020:14:15:00,82.5,13.46,79.3,79.7,79.6,80.4,78.5,24,28,22,0.827,40.1,42.4,37.6,17.65,17.7,202,12,26.9,0.00750,0.01044,62.8,61.3,11,805,.,.,4.26,0.00,0.00
15min,AgWx,beryljct,423,19SEP2020:14:30:00,82.9,13.49,79.3,79.7,80.0,80.6,79.4,24,29,22,0.816,40.3,44.4,38.0,10.98,14.9,201,12,21.5,0.00720,0.00986,63.3,61.3,11,790,.,.,4.25,0.00,0.00
15min,AgWx,beryljct,423,19SEP2020:14:45:00,83.2,13.45,79.3,79.7,79.4,80.1,78.7,25,28,23,0.853,40.7,43.0,38.7,9.19,14.6,209,17,21.4,0.00696,0.00952,63.7,61.3,11,770,.,.,4.26,0.01,0.00
15min,AgWx,beryljct,423,19SEP2020:15:00:00,83.5,13.45,80.2,80.5,79.8,80.5,79.1,24,28,21,0.824,40.2,43.0,37.1,17.12,14.5,200,13,22.0,0.00690,0.00946,64.1,61.4,11,755,.,.,4.26,0.00,0.00
15min,AgWx,beryljct,423,19SEP2020:15:15:00,83.9,13.45,80.3,80.5,80.1,80.8,79.2,25,29,22,0.874,40.9,44.2,38.7,15.94,14.1,195,16,23.2,0.00683,0.00935,64.6,61.5,11,745,.,.,4.26,0.00,0.00
15min,AgWx,beryljct,423,19SEP2020:15:30:00,84.3,13.41,79.3,79.5,79.9,80.6,79.2,26,29,23,0.933,41.6,45.6,39.2,11.75,14.1,209,13,24.9,0.00669,0.00919,65.0,61.5,11,728,.,.,4.26,0.00,0.00
15min,AgWx,beryljct,423,19SEP2020:15:45:00,84.3,13.39,80.3,80.8,80.1,81.2,79.1,25,32,21,0.780,40.9,47.0,37.2,21.15,14.0,198,21,22.6,0.00627,0.00874,65.3,61.6,11,655,.,.,4.26,0.00,0.00
15min,AgWx,beryljct,423,19SEP2020:16:00:00,84.3,13.44,79.3,78.6,79.8,80.8,78.2,24,27,22,0.819,39.9,42.7,37.8,15.78,14.4,201,13,19.8,0.00527,0.00776,65.6,61.7,11,479,.,.,4.26,0.00,0.00
15min,AgWx,beryljct,423,19SEP2020:16:15:00,83.8,13.46,78.6,78.6,79.6,80.7,78.5,24,29,21,0.812,39.9,44.5,36.8,19.64,13.3,202,20,19.7,0.00527,0.00761,65.9,61.8,11,504,.,.,4.26,0.00,0.00
15min,AgWx,beryljct,423,19SEP2020:16:30:00,83.2,13.47,78.5,79.3,78.8,79.9,77.4,26,30,24,0.896,41.1,44.3,38.7,14.78,12.5,213,17,23.7,0.00491,0.00708,66.1,61.9,11,489,.,.,4.26,0.00,0.00
15min,AgWx,beryljct,423,19SEP2020:16:45:00,83.0,13.46,77.9,79.0,79.2,80.0,78.7,25,30,23,0.818,40.0,44.5,37.9,12.65,14.1,192,15,22.6,0.00455,0.00693,66.3,62.0,11,373,.,.,4.26,0.00,0.00
15min,AgWx,beryljct,423,19SEP2020:17:00:00,82.1,13.49,79.7,79.8,78.5,79.8,77.1,25,28,23,0.892,39.6,41.8,37.8,11.77,11.9,191,11,21.7,0.00353,0.00557,66.4,62.1,11,256,.,.,4.26,0.00,0.00
15min,AgWx,beryljct,423,19SEP2020:17:15:00,82.1,13.47,77.5,77.1,79.1,80.5,76.7,26,29,24,0.836,41.1,42.7,38.9,10.61,13.6,203,11,20.8,0.00414,0.00640,66.5,62.2,11,325,.,.,4.26,0.00,0.00
15min,AgWx,beryljct,423,19SEP2020:17:30:00,81.6,13.28,77.7,77.6,78.5,79.4,77.3,26,29,24,0.855,41.3,42.7,39.5,15.92,12.1,203,11,19.4,0.00341,0.00541,66.6,62.3,11,255,.,.,4.26,0.00,0.00
15min,AgWx,beryljct,423,19SEP2020:17:45:00,80.6,13.48,78.8,77.4,78.0,78.4,77.3,26,29,25,0.865,40.7,43.1,39.6,16.97,13.1,195,9.6,19.4,0.00293,0.00501,66.6,62.4,11,153,.,.,4.26,0.00,0.00
15min,AgWx,beryljct,423,19SEP2020:18:00:00,80.4,13.33,76.8,77.3,78.4,79.3,77.2,27,29,25,0.912,41.5,42.9,40.1,7.892,11.0,192,10,16.9,0.00301,0.00487,66.5,62.5,11,218,.,.,4.26,0.00,0.00
15min,AgWx,beryljct,423,19SEP2020:18:15:00,80.3,13.52,78.9,78.8,78.4,79.0,77.1,26,28,24,0.830,40.7,42.4,39.1,19.36,14.0,195,11,22.7,0.00356,0.00578,66.5,62.6,11,235,.,.,4.26,0.00,0.00
15min,AgWx,beryljct,423,19SEP2020:18:30:00,80.1,13.18,77.4,78.0,78.4,78.8,78.0,25,26,24,0.833,39.5,40.7,38.8,11.2,14.1,189,13,21.9,0.00303,0.00529,66.4,62.7,11,130,.,.,4.26,0.00,0.00
15min,AgWx,beryljct,423,19SEP2020:18:45:00,79.2,13.27,76.5,77.1,77.3,78.0,76.6,26,27,24,0.812,39.6,40.7,38.4,8.35,10.5,202,8.8,16.6,0.00138,0.00179,66.3,62.8,11,82,.,.,4.26,0.00,0.00
15min,AgWx,beryljct,423,19SEP2020:19:00:00,78.2,13.14,75.9,76.5,76.8,77.1,76.5,26,27,25,0.834,39.5,40.5,38.8,5.941,9.5,196,8.1,14.4,0.00123,0.00163,66.2,62.9,11,61,.,.,4.26,0.00,0.00
15min,AgWx,beryljct,423,19SEP2020:19:15:00,77.5,13.07,75.8,76.1,76.5,76.9,75.9,26,27,25,0.800,39.1,40.1,38.4,8.86,9.4,196,9.2,12.7,0.00117,0.00156,66.1,63.0,11,43,.,.,4.26,0.00,0.00
15min,AgWx,beryljct,423,19SEP2020:19:30:00,76.4,13.03,75.2,75.0,75.2,76.1,74.6,27,27,25,0.780,38.5,39.1,37.9,8.97,8.0,191,7.5,11.6,0.00094,0.00129,66.0,63.1,11,14,.,.,4.26,0.00,0.00
15min,AgWx,beryljct,423,19SEP2020:19:45:00,75.1,13,72.9,72.8,73.5,75.1,72.6,28,29,26,0.777,38.2,38.7,37.8,6.84,6.6,189,8.0,10.4,0.00072,0.00102,65.8,63.2,11,3,.,.,4.27,0.01,0.00
15min,AgWx,beryljct,423,19SEP2020:20:00:00,73.5,13,69.2,69.9,71.2,72.9,69.9,30,32,28,0.789,38.4,38.7,38.0,5.459,5.3,190,4.0,6.8,0.00050,0.00075,65.7,63.3,11,0,.,.,4.27,0.00,0.00
15min,AgWx,beryljct,423,19SEP2020:20:15:00,71.7,12.98,69.9,70.3,69.9,70.7,69.2,30,33,28,0.730,37.5,38.7,36.2,4.253,4.3,180,10,6.0,0.00036,0.00056,65.5,63.3,11,0,.,.,4.27,0.00,0.00
15min,AgWx,beryljct,423,19SEP2020:20:30:00,70.3,12.97,68.4,68.6,69.5,70.4,68.6,29,31,28,0.707,36.0,36.6,35.6,3.288,3.7,173,6.8,4.6,0.00028,0.00046,65.4,63.4,11,0,.,.,4.27,0.00,0.00
15min,AgWx,beryljct,423,19SEP2020:20:45:00,68.8,12.97,64.4,65.0,66.5,68.6,65.0,33,37,30,0.724,36.7,38.9,35.6,3.771,3.3,177,5.6,4.4,0.00019,0.00032,65.2,63.5,11,0,.,.,4.27,0.00,0.00
15min,AgWx,beryljct,423,19SEP2020:21:00:00,67.0,12.95,63.6,64.7,64.0,65.1,62.5,36,40,34,0.746,36.7,38.4,35.9,4.428,3.7,177,6.2,4.6,0.00021,0.00034,65.0,63.5,11,0,.,.,4.28,0.00,0.00
15min,AgWx,beryljct,423,19SEP2020:21:15:00,65.7,12.95,63.8,64.3,65.1,65.8,64.3,34,36,33,0.732,35.9,37.2,35.2,4.056,5.1,175,6.8,6.4,0.00039,0.00058,64.7,63.6,11,0,.,.,4.28,0.00,0.00
15min,AgWx,beryljct,423,19SEP2020:21:30:00,65.2,12.95,68.1,67.6,66.3,67.7,64.0,33,37,31,0.719,36.3,37.1,35.8,4.845,4.6,173,6.6,5.9,0.00036,0.00054,64.5,63.6,11,0,.,.,4.28,0.00,0.00
15min,AgWx,beryljct,423,19SEP2020:21:45:00,65.0,12.94,64.4,64.9,65.6,67.6,64.2,34,37,31,0.715,36.5,37.6,35.8,3.99,4.4,169,6.6,6.7,0.00032,0.00050,64.3,63.6,11,0,.,.,4.27,0.00,0.00
15min,AgWx,beryljct,423,19SEP2020:22:00:00,64.4,12.93,59.8,61.1,64.2,66.3,61.1,35,41,32,0.742,36.2,38.2,35.1,5.744,3.6,164,13,5.7,0.00020,0.00033,64.0,63.7,11,0,.,.,4.28,0.01,0.00
15min,AgWx,beryljct,423,19SEP2020:22:15:00,63.7,12.92,66.1,62.9,63.0,65.5,58.8,37,48,32,0.713,35.9,40.0,34.6,4.121,3.9,132,62,5.9,0.00023,0.00037,63.9,63.7,11,0,.,.,4.28,0.00,0.00
15min,AgWx,beryljct,423,19SEP2020:22:30:00,63.3,12.92,62.6,62.1,65.5,68.7,62.0,35,41,30,0.782,36.8,38.9,35.4,3.288,2.7,49,54,4.3,0.00009,0.00018,63.6,63.7,11,0,.,.,4.28,0.00,0.00
15min,AgWx,beryljct,423,19SEP2020:22:45:00,62.6,12.91,59.5,57.6,61.0,64.9,57.1,44,54,36,0.820,38.7,40.7,36.8,1.929,2.3,143,35,4.2,-0.00001,0.00003,63.4,63.7,11,0,.,.,4.28,0.00,0.00
15min,AgWx,beryljct,423,19SEP2020:23:00:00,61.5,12.91,58.3,58.6,58.9,61.3,56.6,44,52,39,0.724,36.9,39.6,35.4,1.578,2.3,149,42,5.1,-0.00002,0.00002,63.2,63.7,11,0,.,.,4.28,0.00,0.00
15min,AgWx,beryljct,423,19SEP2020:23:15:00,60.5,12.9,63.5,62.4,59.7,62.4,58.3,39,43,34,0.660,34.7,36.2,33.5,3.332,1.8,58,38,3.7,-0.00008,-0.00008,63.0,63.7,11,0,.,.,4.28,0.00,0.00
15min,AgWx,beryljct,423,19SEP2020:23:30:00,60.3,12.89,58.0,57.4,61.3,66.5,56.5,40,50,31,0.727,36.3,38.7,33.9,4.165,5.2,41,15,9.4,0.00034,0.00049,62.8,63.7,11,0,.,.,4.28,0.01,0.00
15min,AgWx,beryljct,423,19SEP2020:23:45:00,59.3,12.89,57.5,56.4,55.6,57.8,54.6,51,54,44,0.744,37.6,38.4,36.1,2.105,2.1,322,58,4.4,-0.00006,-0.00005,62.6,63.7,11,0,.,.,4.28,0.00,0.00
15min,AgWx,beryljct,423,20SEP2020:00:00:00,58.1,12.88,57.6,57.8,56.0,58.1,54.1,51,56,47,0.768,38.0,38.9,36.7,0.548,0.9,257,51,2.5,-0.00023,-0.00032,62.4,63.7,11,0,.,.,4.28,0.00,0.00
15min,AgWx,beryljct,423,20SEP2020:00:15:00,57.4,12.89,58.9,58.2,58.3,58.9,57.6,47,48,45,0.775,38.0,38.2,37.6,1.754,1.5,65,11,3.8,-0.00014,-0.00017,62.2,63.7,11,0,.,.,4.29,0.00,0.00
15min,AgWx,beryljct,423,20SEP2020:00:30:00,56.8,12.88,55.8,56.5,58.0,58.4,56.5,47,50,46,0.785,38.0,38.3,37.7,0.702,0.2,30,29,2.1,-0.00035,-0.00053,62.0,63.7,11,0,.,.,4.29,0.00,0.00
15min,AgWx,beryljct,423,20SEP2020:00:45:00,56.4,12.87,58.9,58.5,57.6,58.5,56.1,49,51,46,0.771,38.3,38.7,37.9,3.508,2.8,311,11,4.6,0.00001,0.00006,61.8,63.7,11,0,.,.,4.29,0.00,0.00
15min,AgWx,bigpiney,439,19SEP2020:00:00:00,58.4,12.66,57.9,59.5,59.6,60.6,58.6,33,36,30,0.581,30.4,31.7,29.4,1.491,0.2,228,23,1.5,-0.00009,-0.00013,49.8,49.0,45,0,0,0.0,0.00,0.00,0.00
15min,AgWx,bigpiney,439,19SEP2020:00:15:00,58.2,12.66,52.4,52.9,56.7,59.9,52.9,39,48,32,0.659,31.9,33.9,29.6,5.086,3.9,79,60,8.5,0.00036,0.00052,49.8,49.0,45,0,0,0.0,0.00,0.00,0.00
15min,AgWx,bigpiney,439,19SEP2020:00:30:00,57.6,12.65,53.2,53.4,52.4,53.6,51.5,49,51,45,0.633,33.6,34.1,32.6,2.609,3.8,98,13,6.2,0.00026,0.00037,49.8,49.0,45,0,0,0.0,0.00,0.00,0.00
15min,AgWx,bigpiney,439,19SEP2020:00:45:00,56.9,12.63,53.1,53.2,54.2,55.2,52.4,43,48,41,0.614,32.3,33.4,31.8,2.872,3.3,103,19,6.6,0.00026,0.00039,49.8,48.9,45,0,0,0.0,0.00,0.00,0.00
15min,AgWx,bigpiney,439,19SEP2020:01:00:00,56.2,12.63,53.9,53.9,53.5,54.2,52.9,43,45,41,0.592,31.7,32.2,31.2,4.362,3.7,108,16,5.3,0.00029,0.00042,49.8,49.0,45,0,0,0.0,0.00,0.00,0.00
15min,AgWx,bigpiney,439,19SEP2020:01:15:00,55.8,12.63,54.2,53.7,54.0,54.7,53.3,41,42,39,0.580,30.9,31.2,30.6,2.258,3.1,122,16,4.8,0.00026,0.00038,49.8,49.0,45,0,0,0.0,0.00,0.00,0.00
15min,AgWx,bigpiney,439,19SEP2020:01:30:00,55.4,12.62,49.7,50.0,53.7,54.8,49.9,42,51,39,0.628,30.9,33.0,30.3,5.612,3.2,199,33,6.4,0.00026,0.00038,49.8,49.0,45,0,0,0.0,0.00,0.00,0.00
15min,AgWx,bigpiney,439,19SEP2020:01:45:00,54.9,12.61,52.3,51.8,51.7,53.3,49.9,47,51,42,0.606,31.8,32.8,31.0,6.182,4.7,253,14,6.3,0.00032,0.00044,49.7,49.1,45,0,0,0.0,0.00,0.00,0.00
15min,AgWx,bigpiney,439,19SEP2020:02:00:00,54.2,12.6,52.6,52.3,51.8,52.7,51.0,46,49,44,0.614,31.9,32.6,31.1,6.686,6.2,250,6.2,7.2,0.00039,0.00052,49.7,49.0,45,0,0,0.0,0.00,0.00,0.00
15min,AgWx,bigpiney,439,19SEP2020:02:15:00,53.9,12.6,53.1,53.6,52.3,53.9,51.6,46,49,42,0.613,32.4,33.0,31.6,2.565,4.7,257,7.2,6.2,0.00033,0.00045,49.7,49.1,45,0,0,0.0,0.00,0.00,0.00
15min,AgWx,bigpiney,439,19SEP2020:02:30:00,54.0,12.59,52.1,52.7,52.9,53.5,52.2,44,46,42,0.594,31.8,32.3,31.0,3.42,2.0,255,74,5.0,0.00014,0.00023,49.7,49.0,45,0,0,0.0,0.00,0.00,0.00
15min,AgWx,bigpiney,439,19SEP2020:02:45:00,54.0,12.58,49.8,50.7,51.4,52.6,50.6,47,51,43,0.637,31.7,33.0,30.6,0,1.3,130,46,3.6,0.00006,0.00011,49.7,49.0,45,0,0,0.0,0.00,0.00,0.00
15min,AgWx,bigpiney,439,19SEP2020:03:00:00,53.8,12.57,54.7,53.7,52.4,55.2,50.2,44,51,37,0.564,31.1,33.1,29.5,0,1.6,331,64,4.3,0.00010,0.00016,49.7,49.0,45,0,0,0.0,0.00,0.00,0.00
15min,AgWx,bigpiney,439,19SEP2020:03:15:00,53.7,12.56,56.0,55.5,55.1,55.8,53.7,38,40,36,0.559,29.8,30.8,29.4,2.346,1.5,79,19,2.6,0.00011,0.00019,49.6,49.0,45,0,0,0.0,0.00,0.00,0.00
15min,AgWx,bigpiney,439,19SEP2020:03:30:00,53.9,12.55,54.5,54.6,55.1,55.6,54.5,38,39,37,0.564,30.0,30.4,29.6,2.368,2.1,97,19,3.5,0.00018,0.00028,49.6,49.1,45,0,0,0.0,0.00,0.00,0.00
15min,AgWx,bigpiney,439,19SEP2020:03:45:00,54.0,12.54,53.0,53.2,52.7,54.6,51.3,44,49,39,0.571,31.1,32.5,30.0,3.223,2.3,291,54,3.5,0.00017,0.00027,49.6,49.1,45,0,0,0.0,0.00,0.00,0.00
15min,AgWx,bigpiney,439,19SEP2020:04:00:00,53.9,12.53,52.3,52.5,52.4,53.4,50.9,43,48,41,0.565,30.6,31.7,30.1,4.187,3.8,305,19,5.3,0.00029,0.00042,49.6,49.0,45,0,0,0.0,0.00,0.00,0.00
15min,AgWx,bigpiney,439,19SEP2020:04:15:00,53.6,12.53,51.3,54.1,52.7,54.4,51.4,41,45,38,0.549,29.9,30.7,29.2,2.959,3.5,288,13,4.9,0.00028,0.00041,49.5,49.0,45,0,0,0.0,0.00,0.00,0.00
15min,AgWx,bigpiney,439,19SEP2020:04:30:00,53.1,12.51,52.3,51.7,53.5,55.4,51.3,39,43,36,0.553,29.4,29.8,29.0,0.636,2.3,335,35,3.3,0.00019,0.00030,49.5,49.1,45,0,0,0.0,0.00,0.00,0.00
15min,AgWx,bigpiney,439,19SEP2020:04:45:00,52.5,12.5,51.7,51.7,52.1,52.8,51.3,41,43,40,0.544,29.2,29.6,28.9,0,0.3,355,5.7,1.1,-0.00006,-0.00009,49.5,49.0,45,0,0,0.0,0.00,0.00,0.00
15min,AgWx,bigpiney,439,19SEP2020:05:00:00,52.0,12.48,45.2,45.4,48.8,51.7,45.4,52,66,42,0.684,31.7,34.9,29.1,4.143,2.4,226,11,4.6,0.00013,0.00020,49.4,49.1,45,0,0,0.0,0.00,0.00,0.00
15min,AgWx,bigpiney,439,19SEP2020:05:15:00,51.3,12.47,45.5,45.6,45.3,45.7,45.0,64,66,62,0.648,33.9,34.9,33.3,3.398,3.7,240,7.3,4.6,0.00013,0.00019,49.4,49.0,45,0,0,0.0,0.00,0.00,0.00
15min,AgWx,bigpiney,439,19SEP2020:05:30:00,50.7,12.47,46.6,45.9,45.3,45.9,45.1,62,64,58,0.611,33.1,33.8,32.0,3.924,3.2,217,13,4.0,0.00012,0.00018,49.4,49.0,45,0,0,0.0,0.00,0.00,0.00
15min,AgWx,bigpiney,439,19SEP2020:05:45:00,50.0,12.46,44.1,43.6,44.5,46.4,43.5,67,72,57,0.691,34.3,35.3,31.9,3.617,3.8,202,14,5.1,0.00012,0.00017,49.3,49.0,45,0,0,0.0,0.00,0.00,0.00
15min,AgWx,bigpiney,439,19SEP2020:06:00:00,49.4,12.45,45.8,46.4,44.0,47.2,42.6,67,73,54,0.610,33.7,35.0,31.4,5.459,3.8,270,25,5.5,0.00012,0.00017,49.3,49.1,45,0,0,0.0,0.00,0.00,0.00
15min,AgWx,bigpiney,439,19SEP2020:06:15:00,48.9,12.44,45.5,46.7,46.8,47.4,46.0,54,58,52,0.585,30.9,32.1,30.2,3.617,3.3,271,22,5.5,0.00017,0.00025,49.3,49.0,45,0,0,0.0,0.00,0.00,0.00
15min,AgWx,bigpiney,439,19SEP2020:06:30:00,48.6,12.43,44.0,45.2,47.8,49.8,45.2,50,59,43,0.604,29.9,31.7,28.3,4.647,3.0,222,10,5.7,0.00018,0.00026,49.3,49.1,45,0,0,0.0,0.00,0.00,0.00
15min,AgWx,bigpiney,439,19SEP2020:06:45:00,48.2,12.43,42.5,42.3,43.0,45.0,42.1,65,67,60,0.603,32.1,32.5,31.7,3.946,4.4,219,4.0,5.4,0.00015,0.00020,49.2,49.0,45,0,0,0.0,0.00,0.00,0.00
15min,AgWx,bigpiney,439,19SEP2020:07:00:00,47.5,12.42,40.9,40.8,42.5,43.5,40.8,64,72,60,0.623,31.2,32.5,30.5,5.437,5.2,204,14,6.1,0.00017,0.00023,49.2,49.0,45,0,0,0.0,0.00,0.00,0.00